logo tempoitalia

Diretta Meteo Killeen, Stati Uniti (USA)lunedì 31 agosto ore 00:56

Mappa
Sereno 29 °C Sereno 24 Ore: T.min 24 T.max 36
Ponente Sud/Sud-Est Km/h 11.1 Punto di rugiada: 21 °C Umidità: 62% Visibilità: 10 Km
Il sole sorge alle: 07:06 Il sole tramonta alle: 19:55
31 Agosto 2026 00:56 tempo osservato: Sereno Sereno 29 62 1016 vento: Nord S/SE 11.1
30 Agosto 2026 23:56 tempo osservato: Poco Nuvoloso Poco Nuvoloso 29 62 1016 vento: Nord S/SE 11.1
30 Agosto 2026 22:56 tempo osservato: Sereno Sereno 30 55 1015 vento: Nord S/SE 14.8
30 Agosto 2026 21:56 tempo osservato: Sereno Sereno 31 45 1015 vento: Nord SE 9.3
30 Agosto 2026 20:56 tempo osservato: Sereno Sereno 32 43 1014 vento: Nord SE 11.1
30 Agosto 2026 19:56 tempo osservato: Sereno Sereno 33 38 1013 vento: Nord S/SE 9.3
30 Agosto 2026 18:56 tempo osservato: Poco Nuvoloso Poco Nuvoloso 35 34 1013 vento: Nord S/SE 14.8
30 Agosto 2026 17:56 tempo osservato: Sereno Sereno 36 34 1013 vento: Nord S 11.1
30 Agosto 2026 16:56 tempo osservato: Sereno Sereno 36 34 1014 vento: Nord SE 18.5
30 Agosto 2026 15:56 tempo osservato: Sereno Sereno 36 34 1014 vento: Nord S 13
30 Agosto 2026 14:56 tempo osservato: Sereno Sereno 36 32 1015 vento: Nord S 18.5
30 Agosto 2026 13:56 tempo osservato: Sereno Sereno 34 38 1016 vento: Nord SE 11.1
30 Agosto 2026 12:56 tempo osservato: Sereno Sereno 34 41 1017 vento: Nord S/SO 16.7
30 Agosto 2026 11:56 tempo osservato: Sereno Sereno 33 46 1018 vento: Nord S 11.1
30 Agosto 2026 10:56 tempo osservato: Sereno Sereno 31 55 1018 vento: Nord S 13
30 Agosto 2026 09:56 tempo osservato: Sereno Sereno 28 65 1018 vento: Nord S 13
30 Agosto 2026 08:56 tempo osservato: Sereno Sereno 27 74 1018 vento: Nord S 14.8
30 Agosto 2026 07:56 tempo osservato: Sereno Sereno 25 83 1017 vento: Nord N 5.5
30 Agosto 2026 06:56 tempo osservato: Sereno Sereno 24 88 1017 vento: Nord N 5.5
30 Agosto 2026 05:56 tempo osservato: Sereno Sereno 26 73 1016 vento: Nord S 7.4
30 Agosto 2026 04:56 tempo osservato: Sereno Sereno 26 73 1016 vento: Nord S 9.3
30 Agosto 2026 03:56 tempo osservato: Sereno Sereno 26 73 1016 vento: Nord S/SO 11.1
30 Agosto 2026 02:56 tempo osservato: Sereno Sereno 27 69 1016 vento: Nord S/SE 11.1
30 Agosto 2026 01:56 tempo osservato: Sereno Sereno 28 65 1016 vento: Nord S 9.3